Hourly Data Report for October 16, 2015

All times are specified in Local Standard Time (LST). Add 1 hour to adjust for Daylight Saving Time where and when it is observed.

CHARLOTTETOWN A
PRINCE EDWARD ISLAND

46°17'21.000" N
63°07'09.000" W
48.50 m
8300301
71706
YYG

Download Data

Hourly Data (October 2015)
Hourly Data Report for October 16, 2015
Temp Definition
°C
Dew Point Temp Definition
°C
Rel Hum Definition
%
Wind Dir Definition
10's deg

Wind Spd Definition
km/h
Visibility Definition
km
Stn Press Definition
kPa
Hmdx Definition


Wind Chill Definition


Weather Definition


TIME
00:00 Legend Double Dagger 6.7 5.7 93 22 9 24.1 100.65     LegendNANA
01:00 Legend Double Dagger 7.7 6.5 92 23 10 24.1 100.63     LegendNANA
02:00 Legend Double Dagger 7.7 6.7 93 23 7 24.1 100.69     Clear
03:00 Legend Double Dagger 7.5 6.6 94 20 9 24.1 100.66     LegendNANA
04:00 Legend Double Dagger 7.9 6.9 93 21 9 24.1 100.64     LegendNANA
05:00 Legend Double Dagger 8.1 7.0 93 20 13 24.1 100.62     Mostly Cloudy
06:00 Legend Double Dagger 7.5 6.0 90 18 15 24.1 100.60     LegendNANA
07:00 Legend Double Dagger 8.1 5.2 82 18 19 24.1 100.62     LegendNANA
08:00 Legend Double Dagger 9.7 5.9 77 18 19 24.1 100.61     Mostly Cloudy
09:00 Legend Double Dagger 9.8 6.0 77 19 25 24.1 100.62     LegendNANA
10:00 Legend Double Dagger 10.5 6.9 78 19 36 24.1 100.54     LegendNANA
11:00 Legend Double Dagger 11.6 7.6 76 19 36 24.1 100.47     Mostly Cloudy
12:00 Legend Double Dagger 12.0 6.7 70 19 32 24.1 100.35     LegendNANA
13:00 Legend Double Dagger 13.2 7.7 69 18 34 24.1 100.23     LegendNANA
14:00 Legend Double Dagger 14.5 5.9 56 18 36 24.1 100.12     Mostly Cloudy
15:00 Legend Double Dagger 14.0 6.7 61 18 28 24.1 100.05     LegendNANA
16:00 Legend Double Dagger 12.7 8.4 75 19 28 9.7 100.01     Rain Showers,Fog
17:00 Legend Double Dagger 10.2 9.1 93 19 21 12.9 100.02     Rain Showers
18:00 Legend Double Dagger 10.6 9.2 91 20 22 12.9 100.01     Rain Showers
19:00 Legend Double Dagger 10.1 8.6 90 24 11 24.1 100.09     LegendNANA
20:00 Legend Double Dagger 9.6 7.6 87 25 14 24.1 100.14     Mainly Clear
21:00 Legend Double Dagger 8.8 7.4 91 27 14 24.1 100.22     LegendNANA
22:00 Legend Double Dagger 8.4 6.2 86 27 16 24.1 100.28     LegendNANA
23:00 Legend Double Dagger 6.4 4.9 90 29 22 24.1 100.37     Rain Showers

Notes on Data Quality.

Legend

  • E = Estimated
  • M = Missing
  • NA = Not Available
  • ‡ = Partner data that is not subject to review by the National Climate Archives
Date modified: